Regional Weather Roundup
Issued by NWS

Home | Current Version | Previous Version | Graphics & Text | Print | Product List | Glossary Off
Versions: 1 2 3 4 5 6 7 8 9 10 11 12 13 14 15 16 17 18 19 20 21 22 23 24 25 26 27 28 29 30 31 32 33 34 35 36 37 38 39 40 41 42 43 44 45 46 47 48 49 50

000
ASUS43 KMPX 100601
RWRMN
WEATHER ROUNDUP FOR MINNESOTA
NATIONAL WEATHER SERVICE TWIN CITIES/CHANHASSEN MN
1200 AM CST SAT DEC 10 2016


NOTE: "FAIR" INDICATES FEW OR NO CLOUDS BELOW 12,000 FEET WITH NO
SIGNIFICANT WEATHER AND/OR OBSTRUCTIONS TO VISIBILITY. N/A MEANS
CURRENT SKY AND/OR WEATHER CONDITIONS ARE NOT AVAILABLE.

MNZ060>063-068>070-100700-
   Twin Cities Metro

CITY           SKY/WX    TMP DP  RH WIND       PRES   REMARKS
TWIN CITIES    CLOUDY    10   1  67 NW12      30.50F WCI  -5
6HR MIN TEMP:  10; 6HR MAX TEMP:  15; 6HR PCP: TRACE;

ST PAUL        CLOUDY    10   2  69 NW12      30.52S WCI  -5
CRYSTAL        CLOUDY     9   0  67 W8        30.49F WCI  -3
BLAINE         CLOUDY    10   3  72 NW9       30.48F WCI  -2
LAKEVILLE      CLEAR      5   1  85 W6        30.49F WCI  -6
EDEN PRAIRIE   CLOUDY     9   1  70 NW9       30.49F WCI  -4
6HR MIN TEMP:   9; 6HR MAX TEMP:  14; 6HR PCP: TRACE;

SOUTH ST PAUL  CLOUDY    12   4  69 NW10      30.50S WCI  -1
LAKE ELMO      MOCLDY    10   5  79 W7        30.50S WCI   0
$$
MNZ001>005-007-008-013>017-022>024-027-028-100700-
   Northwest Minnesota

CITY           SKY/WX    TMP DP  RH WIND       PRES   REMARKS
BEMIDJI        FLURRIES  -2  -7  80 W7        30.45F WCI -15
HALLOCK        CLOUDY    -2  -8  78 NW8       30.55S WCI -17
ROSEAU         MOCLDY    -6  -9  84 W8        30.50S WCI -21
WARROAD        PTCLDY    -8 -11  84 W5        30.49R WCI -19
THIEF RVR FALL FLURRIES  -5  -9  83 NW7       30.52S WCI -19
CROOKSTON      CLOUDY    -6  -9  84 NW3       30.56S
FOSSTON        CLOUDY    -9 -15  77 W5        30.50S WCI -21
DETROIT LAKES  LGT SNOW  -2  -6  84 NW5       30.49S WCI -12
MOORHEAD       PTCLDY    -8 -13  77 NW5       30.56S WCI -19
PARK RAPIDS    CLOUDY     1  -8  66 NW9       30.45S WCI -14
$$
MNZ006-009>011-018-025>026-100700-
   North Central Minnesota

CITY           SKY/WX    TMP DP  RH WIND       PRES   REMARKS
BAUDETTE       CLEAR     -5 -10  79 W9        30.45S WCI -22
FLAG ISLAND    CLEAR     -4  -8  84 W12       30.46S WCI -22
INTL FALLS     CLOUDY    -4  -9  79 W7        30.43S WCI -18
6HR MIN TEMP:  -4; 6HR MAX TEMP:   1;

WASKISH        CLOUDY     0  -8  71 W6        30.46F WCI -12
BIG FORK       CLOUDY     0  -6  78 W5        30.44S WCI -10
LONGVILLE      LGT SNOW   1  -2  85 NW5       30.45S WCI  -8
GRAND RAPIDS   FLURRIES   3  -4  72 NW13      30.45S WCI -14
CRANE LAKE     CLOUDY    -2  -8  78 CALM      30.45S
ORR            CLEAR     -6 -11  77 CALM      30.40S
COOK           MOCLDY    -4  -8  84 W5        30.43S WCI -15
$$
MNZ012-019>021-037-100700-
   Northeast Minnesota

CITY           SKY/WX    TMP DP  RH WIND       PRES   REMARKS
DULUTH         CLOUDY     6  -2  69 NW8       30.40S WCI  -7
6HR MIN TEMP:   4; 6HR MAX TEMP:   8; 6HR PCP: TRACE;

ELY            CLOUDY     3  -2  78 W7        30.38S WCI  -9
HIBBING        CLOUDY     2  -4  76 NW12      30.42S WCI -15
EVELETH        LGT SNOW   4  -5  68 W10       30.42S WCI -12
DULUTH HARBOR  CLOUDY    10   0  61 CALM      30.49S
TWO HARBORS    CLEAR     -2  -8  78 CALM      30.41S
SILVER BAY     MOCLDY     3  -4  72 CALM      30.40S
GRAND MARAIS     N/A     10   1  67 NW7       30.41S WCI  -1
G MARAIS ARPRT CLOUDY     3  -4  72 NW5       30.30R WCI  -6
$$
MNZ029>031-032-039>041-046>048-054>057-064-100700-
   West Central Minnesota

CITY           SKY/WX    TMP DP  RH WIND       PRES   REMARKS
FERGUS FALLS   MOCLDY    -8 -11  84 NW9       30.58S WCI -25
WHEATON        CLEAR     -2  -6  84 NW7       30.57S WCI -16
MORRIS         CLEAR     -2  -6  84 NW8       30.52S WCI -17
ALEXANDRIA     PTCLDY    -3  -8  79 NW6       30.48F WCI -15
ELBOW LAKE     FAIR      -4  -8  86 NW8       30.52R WCI -19
WADENA         FLURRIES  -4  -8  84 CALM      30.47S
GLENWOOD       CLEAR     -4  -8  84 W6        30.49S WCI -16
APPLETON       CLEAR      1  -2  85 NW5       30.55S WCI  -8
BENSON         CLEAR      0  -6  78 NW6       30.53S WCI -12
ORTONVILLE     PTCLDY     0  -8  71 CALM      30.54S
MADISON        CLEAR      3   0  85 N7        30.54S WCI  -9
WILLMAR        FAIR       1  -2  85 CALM      30.52S
$$
MNZ033>034-036-042>043-049>051-058-059-100700-
   Central Minnesota

CITY           SKY/WX    TMP DP  RH WIND       PRES   REMARKS
ST CLOUD       CLEAR      3  -2  79 W7        30.49F WCI  -9
6HR MIN TEMP:   3; 6HR MAX TEMP:  10;

PAYNESVILLE    CLEAR      0  -3  84 W6        30.50F WCI -11
AITKIN         CLOUDY     9  -2  61 NW6       30.44S WCI  -1
PINE RIVER     CLOUDY     3  -4  72 W5        30.48S WCI  -6
BRAINERD       MOCLDY     4  -4  69 NW7       30.46F WCI  -8
LONG PRAIRIE   FAIR      -4  -8  84 W5        30.48F WCI -15
LITTLE FALLS   CLEAR      3  -4  72 NW5       30.49F WCI  -6
LITCHFIELD     CLEAR      3   0  85 NW6       30.50F WCI  -8
BUFFALO        CLEAR      5   0  78 W5        30.51F WCI  -4
MAPLE LAKE     CLEAR      5   2  86 W5        30.51F WCI  -4
HUTCHINSON     PTCLDY     6   1  81 W7        30.51F WCI  -6
$$
MNZ037-044-045-052-053-100700-
   East Central Minnesota

CITY           SKY/WX    TMP DP  RH WIND       PRES   REMARKS
PRINCETON      CLOUDY     9   1  72 W6        30.48F WCI  -1
MORA           CLOUDY    10   1  67 W5        30.48S WCI   2
CAMBRIDGE      FLURRIES  10   1  67 W5        30.46F WCI   2
RUSH CITY      CLOUDY    10   5  79 W7        30.47F WCI   0
MOOSE LAKE     CLOUDY    10   1  67 CALM      30.43F
HINCKLEY       CLOUDY    12   3  67 NW3       30.46S
CLOQUET        FLURRIES   7   1  78 NW5       30.41F WCI  -2
MCGREGOR       CLOUDY     9   0  66 NW10      30.44F WCI  -6
$$
MNZ071>073-080-081-089-090-097-098-100700-
   Southwest Minnesota

CITY           SKY/WX    TMP DP  RH WIND       PRES   REMARKS
MONTEVIDEO     CLEAR      1  -4  78 CALM      30.55F
GRANITE FALLS  MOCLDY     5   0  81 NW5       30.55S WCI  -4
CANBY          CLOUDY     6   1  81 CALM      30.54S
MARSHALL       CLOUDY     5   0  79 NW8       30.53S WCI  -8
REDWOOD FALLS  CLOUDY     7   0  73 NW5       30.53S WCI  -2
OLIVIA         CLEAR      5   0  78 NW5       30.52S WCI  -4
PIPESTONE      CLOUDY     9   3  78 NE5       30.45F WCI   0
WINDOM         FLURRIES   7   3  85 MISG      30.49S
WORTHINGTON    FLURRIES   8   4  83 N6        30.47F WCI  -2
JACKSON        FLURRIES   9   3  78 N6        30.48F WCI  -1
TRACY          CLOUDY     7   3  83 N6        30.50F WCI  -3
SLAYTON        FLURRIES   6   3  86 N7        30.48R WCI  -6
$$
MNZ065>067-074>077-082>085-091>093-100700-
   South Central Minnesota

CITY           SKY/WX    TMP DP  RH WIND       PRES   REMARKS
MANKATO        CLEAR      8   3  80 NW9       30.51F WCI  -5
NEW ULM        CLOUDY     7   0  72 NW6       30.52F WCI  -3
ST JAMES       CLOUDY     9   3  78 NW9       30.53R WCI  -5
FAIRMONT       FLURRIES   9   5  84 NW8       30.51S WCI  -3
GLENCOE        MOCLDY     7   3  84 W7        30.51S WCI  -5
FARIBAULT      CLOUDY     9   3  78 W6        30.50S WCI  -1
OWATONNA       MOCLDY     9   3  78 NW7       30.49S WCI  -3
WASECA         CLOUDY    10   5  79 NW9       30.50S WCI  -2
ALBERT LEA     CLOUDY    16  10  79 NW5       30.47F WCI   9
$$
MNZ078>079-086>088-094>096-100700-
   Southeast Minnesota

CITY           SKY/WX    TMP DP  RH WIND       PRES   REMARKS
ROCHESTER      FLURRIES   8   6  92 NW9       30.46F WCI  -5
6HR MIN TEMP:   8; 6HR MAX TEMP:  13; 6HR PCP: TRACE;

RED WING       FLURRIES  10   5  79 W7        30.49F WCI   0
STANTON        CLEAR      9   4  80 W5        30.49F WCI   0
DODGE CENTER   LGT SNOW   9   5  85 NW7       30.46F WCI  -3
WINONA         CLOUDY    14   9  79 W12G18    30.51F WCI   0
AUSTIN         CLOUDY    12   7  79 NW8       30.47S WCI   1
PRESTON        CLOUDY    12   8  83 NW8       30.46F FOG     WCI   0
$$
ABBREVIATIONS USED IN REMARKS
   TC - TEMPERATURES IN CELSIUS
  WCI - WIND CHILL INDEX
   HX - HEAT INDEX
  VSB - VISIBILITY
$$



USA.gov is the U.S. government's official web portal to all federal, state and local government web resources and services.